Location: Henham
(51.9333°N, 0.2500°E)
Time: 04:42:09
(UTC+00:00)

Cosmos 2082 Rocket - Pass Details

Date: 23 October 2019
Orbit: 832 x 854 km, 71.0° (Epoch: 17 November)

Event Time Altitude Azimuth Distance (km) Brightness Sun altitude
Rises 19:10:20 0° 322° (NW) 3,433 6.1 -22.4°
Reaches altitude 10° 19:13:10 10° 311° (NW) 2,490 5.5 -22.8°
Maximum altitude 19:17:47 26° 257° (WSW) 1,618 4.3 -23.5°
Drops below altitude 10° 19:22:22 10° 202° (SSW) 2,465 4.7 -24.2°
Sets 19:25:09 0° 190° (S) 3,392 5.3 -24.6°
